GW5621 Weather Reports


time (UTC)temp
C
wind
direction
speed
KPH
gust
KPH
rain 1hr
cm
rain 24hr
cm
rain mn
cm
humidity
%
barometer
mb
20260506211550 16 297 0.0 4.8 0.00 1.12 1.12 93 1006.8
20260506210038 16 275 1.6 8.0 0.00 1.12 1.12 93 1006.8
20260506204539 16 221 0.0 6.4 0.00 1.12 1.12 94 1006.8
20260506203047 16 286 1.6 11.3 0.00 1.12 1.12 94 1006.8
20260506201545 15 321 1.6 14.5 0.00 1.12 1.12 94 1006.7
20260506200042 15 302 1.6 9.7 0.00 1.12 1.12 94 1006.8
20260506194538 15 319 0.0 6.4 0.00 1.12 1.12 94 1006.9
20260506193035 15 312 0.0 6.4 0.03 1.12 1.12 94 1006.9
20260506191543 15 212 0.0 4.8 0.08 1.12 1.12 94 1007.0
20260506190043 15 247 0.0 4.8 0.13 1.12 1.12 94 1007.2
20260506184541 15 178 0.0 6.4 0.20 1.12 1.12 94 1007.3
20260506183041 15 0 1.6 4.8 0.23 1.09 1.09 93 1007.6
20260506181558 15 0 1.6 6.4 0.25 1.04 1.04 93 1007.7
20260506180044 15 281 0.0 4.8 0.25 0.99 0.99 93 1007.7
20260506174542 15 0 0.0 8.0 0.28 0.91 0.91 93 1007.9
20260506173054 15 297 1.6 8.0 0.25 0.86 0.86 93 1007.8
20260506171537 15 0 1.6 11.3 0.20 0.79 0.79 93 1007.8
20260506170055 15 170 1.6 4.8 0.18 0.74 0.74 93 1007.9
20260506164544 15 124 0.0 6.4 0.13 0.64 0.64 93 1008.0
20260506163042 15 0 1.6 9.7 0.18 0.61 0.61 92 1008.1
20260506161543 15 224 0.0 8.0 0.25 0.58 0.58 92 1008.1
20260506160041 15 0 3.2 8.0 0.25 0.56 0.56 92 1008.1
20260506154535 15 169 3.2 11.3 0.25 0.51 0.51 92 1008.0
20260506153043 15 168 0.0 6.4 0.23 0.43 0.43 91 1008.8
20260506151545 15 134 1.6 6.4 0.18 0.33 0.33 91 1009.2
20260506150049 15 110 1.6 6.4 0.18 0.30 0.30 91 1008.8
20260506144543 15 167 0.0 4.8 0.15 0.25 0.25 91 1008.6
20260506143036 15 0 0.0 6.4 0.10 0.18 0.18 90 1008.7
20260506141537 15 0 0.0 0.0 0.10 0.15 0.15 90 1009.2
20260506140043 15 310 0.0 4.8 0.08 0.13 0.13 89 1009.0
20260506134547 15 0 0.0 3.2 0.08 0.10 0.10 88 1009.0
20260506133037 16 217 0.0 4.8 0.08 0.08 0.08 87 1009.2
20260506131557 16 0 0.0 4.8 0.05 0.05 0.05 86 1009.2
20260506130052 16 259 1.6 14.5 0.05 0.05 0.05 84 1009.3
20260506124543 16 266 1.6 12.9 0.03 0.03 0.03 82 1009.3
20260506123043 17 188 0.0 4.8 0.00 0.00 0.00 81 1008.9
20260506121539 17 237 0.0 4.8 0.00 0.00 0.00 81 1008.8
20260506120036 17 0 0.0 4.8 0.00 0.00 0.00 80 1008.8
20260506114535 17 0 0.0 4.8 0.00 0.00 0.00 77 1008.9
20260506113042 17 139 1.6 8.0 0.00 0.00 0.00 77 1008.8
20260506111543 17 129 0.0 8.0 0.00 0.00 0.00 76 1008.9
20260506110038 17 293 1.6 4.8 0.00 0.00 0.00 76 1008.7
20260506104536 17 0 0.0 3.2 0.00 0.00 0.00 76 1008.5
20260506103044 17 309 0.0 12.9 0.00 0.00 0.00 75 1008.3
20260506101536 16 0 0.0 4.8 0.00 0.00 0.00 75 1008.3
20260506100042 16 0 0.0 4.8 0.00 0.00 0.00 74 1008.2
20260506094549 16 204 0.0 3.2 0.00 0.03 0.00 74 1008.5
20260506093039 17 93 1.6 4.8 0.00 0.03 0.00 73 1008.4
20260506091537 16 0 0.0 0.0 0.00 0.03 0.00 72 1008.4
20260506090035 16 0 0.0 4.8 0.00 0.03 0.00 72 1008.4
20260506084539 16 0 0.0 1.6 0.00 0.20 0.00 72 1008.6
20260506083039 16 0 0.0 1.6 0.00 0.20 0.00 72 1008.7
20260506081537 15 0 0.0 3.2 0.00 0.20 0.00 73 1008.6
20260506073043 15 0 0.0 0.0 0.00 0.20 0.00 72 1008.7
20260506071545 15 0 0.0 0.0 0.00 0.20 0.00 71 1008.8
20260506061545 16 0 0.0 1.6 0.00 0.20 0.00 68 1009.1
20260506044536 17 100 0.0 4.8 0.00 0.20 0.00 63 1009.8
20260506043035 16 65 0.0 3.2 0.00 0.20 0.00 65 1009.7
20260506041537 17 0 1.6 3.2 0.00 0.20 0.00 64 1009.7
20260506040037 17 46 0.0 3.2 0.00 0.20 0.00 62 1009.8
20260506034543 17 0 0.0 3.2 0.00 0.20 0.20 59 1009.7
20260506033039 18 51 0.0 3.2 0.00 0.20 0.20 58 1009.7
20260506031536 18 0 0.0 3.2 0.00 0.20 0.20 58 1009.7
20260506030044 18 31 0.0 3.2 0.00 0.20 0.20 57 1009.6
20260506024553 19 6 0.0 1.6 0.00 0.20 0.20 54 1009.6
20260506023041 20 194 0.0 4.8 0.00 0.20 0.20 52 1009.7
20260506021548 20 0 0.0 6.4 0.00 0.20 0.20 50 1009.7
20260506020042 20 322 1.6 6.4 0.00 0.20 0.20 50 1009.6
20260506014538 21 76 0.0 4.8 0.00 0.20 0.20 49 1009.6
20260506013043 21 197 0.0 4.8 0.00 0.20 0.20 47 1009.3
20260506011540 21 220 1.6 6.4 0.00 0.20 0.20 47 1009.2
20260506010038 21 222 1.6 6.4 0.00 0.20 0.20 46 1008.9
20260506004543 22 236 1.6 11.3 0.00 0.20 0.20 46 1008.8
20260506003042 22 283 0.0 11.3 0.00 0.20 0.20 45 1008.7
20260506001542 22 245 1.6 16.1 0.00 0.20 0.20 43 1008.5
20260506000040 22 352 1.6 11.3 0.00 0.20 0.20 43 1008.3
20260505234538 23 138 1.6 11.3 0.00 0.20 0.20 41 1008.3
20260505233035 23 168 1.6 4.8 0.00 0.20 0.20 41 1008.2
20260505231552 24 137 4.8 14.5 0.00 0.20 0.20 40 1008.1
20260505230051 24 241 3.2 17.7 0.00 0.20 0.20 39 1007.9
20260505224537 25 0 3.2 16.1 0.00 0.20 0.20 39 1007.9
20260505223044 25 172 3.2 20.9 0.00 0.20 0.20 39 1007.7
20260505221536 25 300 4.8 14.5 0.00 0.20 0.20 38 1007.8
20260505220042 25 285 1.6 19.3 0.00 0.20 0.20 39 1007.5
20260505214542 25 101 3.2 12.9 0.00 0.20 0.20 37 1007.5
20260505213047 26 226 6.4 22.5 0.00 0.20 0.20 36 1007.6